TimeAKDT,TemperatureF,Dew PointF,Humidity,Sea Level PressureIn,VisibilityMPH,Wind Direction,Wind SpeedMPH,Gust SpeedMPH,PrecipitationIn,Events,Conditions,WindDirDegrees,DateUTC
12:29 AM,42.8,42.8,100,29.82,4.0,ENE,20.7,26.5,N/A,,Overcast,70,2012-10-10 08:29:00
12:38 AM,42.8,42.8,100,29.82,2.5,ENE,18.4,26.5,N/A,,Overcast,70,2012-10-10 08:38:00
12:53 AM,43.0,43.0,100,29.78,1.8,ENE,19.6,27.6,N/A,,Overcast,70,2012-10-10 08:53:00
1:37 AM,42.8,42.8,100,29.81,2.0,East,21.9,27.6,N/A,,Overcast,80,2012-10-10 09:37:00
1:53 AM,42.1,42.1,100,29.77,2.0,East,23.0,28.8,N/A,,Overcast,80,2012-10-10 09:53:00
2:08 AM,42.8,42.8,100,29.80,1.5,East,23.0,32.2,N/A,,Overcast,80,2012-10-10 10:08:00
2:18 AM,42.8,42.8,100,29.79,2.5,ENE,18.4,26.5,N/A,,Overcast,70,2012-10-10 10:18:00
2:28 AM,42.8,42.8,100,29.80,1.5,ENE,23.0,-,N/A,,Overcast,70,2012-10-10 10:28:00
2:53 AM,42.1,42.1,100,29.76,1.2,ENE,19.6,29.9,N/A,,Overcast,70,2012-10-10 10:53:00
3:24 AM,42.8,42.8,100,29.79,1.0,ENE,21.9,27.6,N/A,,Mist,70,2012-10-10 11:24:00
3:50 AM,42.8,42.8,100,29.79,1.8,ENE,18.4,27.6,N/A,,Overcast,70,2012-10-10 11:50:00
3:53 AM,43.0,42.1,97,29.76,1.8,ENE,18.4,25.3,N/A,,Overcast,70,2012-10-10 11:53:00
4:15 AM,42.8,42.8,100,29.78,2.0,ENE,16.1,-,N/A,,Overcast,70,2012-10-10 12:15:00
4:23 AM,42.8,42.8,100,29.78,1.5,ENE,15.0,-,N/A,,Overcast,70,2012-10-10 12:23:00
4:32 AM,42.8,42.8,100,29.78,3.0,ENE,10.4,23.0,N/A,,Overcast,70,2012-10-10 12:32:00
4:38 AM,42.8,42.8,100,29.78,1.8,ENE,13.8,-,N/A,,Overcast,60,2012-10-10 12:38:00
4:53 AM,42.1,42.1,100,29.74,1.8,ENE,19.6,26.5,N/A,,Overcast,70,2012-10-10 12:53:00
4:57 AM,42.8,42.8,100,29.77,3.0,ENE,15.0,26.5,N/A,,Overcast,70,2012-10-10 12:57:00
5:21 AM,42.8,42.8,100,29.76,1.8,ENE,19.6,24.2,N/A,,Overcast,70,2012-10-10 13:21:00
5:36 AM,42.8,42.8,100,29.76,2.5,ENE,19.6,-,N/A,,Overcast,60,2012-10-10 13:36:00
5:43 AM,42.8,42.8,100,29.76,5.0,ENE,18.4,-,N/A,,Overcast,70,2012-10-10 13:43:00
5:53 AM,42.1,42.1,100,29.72,2.5,ENE,19.6,-,N/A,,Overcast,70,2012-10-10 13:53:00
6:02 AM,42.8,42.8,100,29.76,1.0,ENE,18.4,-,N/A,,Overcast,70,2012-10-10 14:02:00
6:12 AM,42.8,42.8,100,29.76,1.5,ENE,16.1,24.2,N/A,,Overcast,70,2012-10-10 14:12:00
6:53 AM,42.1,42.1,100,29.70,1.2,ENE,23.0,28.8,N/A,,Overcast,60,2012-10-10 14:53:00
7:03 AM,42.8,42.8,100,29.73,1.0,ENE,20.7,31.1,N/A,,Mist,60,2012-10-10 15:03:00
7:15 AM,42.8,42.8,100,29.73,2.0,ENE,23.0,31.1,N/A,,Overcast,60,2012-10-10 15:15:00
7:22 AM,42.8,42.8,100,29.72,1.0,ENE,25.3,29.9,N/A,,Mist,60,2012-10-10 15:22:00
7:32 AM,42.8,42.8,100,29.72,0.8,ENE,25.3,31.1,N/A,,Mist,70,2012-10-10 15:32:00
7:53 AM,42.1,42.1,100,29.69,0.8,ENE,24.2,-,N/A,,Mist,70,2012-10-10 15:53:00
8:00 AM,42.8,42.8,100,29.72,1.0,ENE,23.0,-,N/A,,Mist,70,2012-10-10 16:00:00
8:21 AM,42.8,42.8,100,29.72,0.8,ENE,23.0,-,N/A,,Mist,70,2012-10-10 16:21:00
8:53 AM,41.0,41.0,100,29.68,0.5,ENE,24.2,-,N/A,Fog,Fog,60,2012-10-10 16:53:00
9:36 AM,41.0,41.0,100,29.70,1.2,ENE,26.5,32.2,N/A,,Overcast,70,2012-10-10 17:36:00
9:50 AM,42.8,42.8,100,29.70,0.8,ENE,24.2,31.1,N/A,,Mist,70,2012-10-10 17:50:00
9:51 AM,42.1,42.1,100,29.67,0.8,ENE,23.0,31.1,N/A,,Mist,70,2012-10-10 17:51:00
10:20 AM,41.0,41.0,100,29.71,1.2,ENE,24.2,31.1,N/A,,Overcast,70,2012-10-10 18:20:00
10:29 AM,41.0,41.0,100,29.70,0.8,ENE,25.3,33.4,N/A,,Overcast,70,2012-10-10 18:29:00
10:53 AM,41.0,41.0,100,29.65,0.5,ENE,28.8,35.7,N/A,Fog,Fog,60,2012-10-10 18:53:00
11:53 AM,42.1,42.1,100,29.65,0.2,ENE,27.6,34.5,N/A,Fog,Fog,70,2012-10-10 19:53:00
12:19 PM,42.8,42.8,100,29.68,1.2,ENE,25.3,32.2,N/A,,Overcast,70,2012-10-10 20:19:00
12:34 PM,42.8,42.8,100,29.67,1.0,ENE,24.2,33.4,N/A,,Overcast,70,2012-10-10 20:34:00
1:29 PM,42.8,42.8,100,29.67,1.2,ENE,21.9,-,N/A,,Overcast,70,2012-10-10 21:29:00
1:53 PM,43.0,43.0,100,29.64,1.5,ENE,19.6,27.6,N/A,,Overcast,70,2012-10-10 21:53:00
2:02 PM,42.8,42.8,100,29.67,2.5,ENE,16.1,28.8,N/A,,Overcast,70,2012-10-10 22:02:00
2:20 PM,44.6,44.6,100,29.66,4.0,ENE,18.4,27.6,N/A,,Overcast,70,2012-10-10 22:20:00
2:51 PM,44.6,44.6,100,29.65,6.0,ENE,24.2,31.1,N/A,,Overcast,70,2012-10-10 22:51:00
2:53 PM,44.1,44.1,100,29.62,6.0,ENE,23.0,31.1,N/A,,Overcast,70,2012-10-10 22:53:00
3:53 PM,45.0,44.1,97,29.60,7.0,ENE,21.9,29.9,N/A,,Mostly Cloudy,70,2012-10-10 23:53:00
4:37 PM,46.4,44.6,93,29.61,6.0,ENE,23.0,29.9,N/A,,Scattered Clouds,60,2012-10-11 00:37:00
4:53 PM,45.0,44.1,97,29.57,6.0,NE,20.7,28.8,N/A,,Mostly Cloudy,50,2012-10-11 00:53:00
5:42 PM,46.4,44.6,93,29.58,6.0,ENE,25.3,-,N/A,,Scattered Clouds,60,2012-10-11 01:42:00
5:53 PM,46.0,44.1,93,29.55,6.0,ENE,25.3,33.4,N/A,,Clear,60,2012-10-11 01:53:00
6:50 PM,44.6,44.6,100,29.57,6.0,NE,26.5,35.7,N/A,,Scattered Clouds,50,2012-10-11 02:50:00
6:53 PM,45.0,44.1,97,29.54,6.0,ENE,26.5,34.5,N/A,,Scattered Clouds,60,2012-10-11 02:53:00
7:01 PM,44.6,44.6,100,29.57,6.0,ENE,26.5,33.4,N/A,,Mostly Cloudy,60,2012-10-11 03:01:00
7:53 PM,44.1,43.0,96,29.54,7.0,ENE,19.6,-,N/A,,Scattered Clouds,60,2012-10-11 03:53:00
8:53 PM,44.1,43.0,96,29.53,7.0,NE,24.2,-,N/A,,Scattered Clouds,50,2012-10-11 04:53:00
9:53 PM,44.1,43.0,96,29.53,7.0,NE,23.0,-,N/A,,Clear,50,2012-10-11 05:53:00
10:53 PM,43.0,43.0,100,29.52,7.0,NE,23.0,28.8,N/A,,Clear,50,2012-10-11 06:53:00
11:53 PM,43.0,43.0,100,29.51,7.0,NE,25.3,32.2,N/A,,Mostly Cloudy,50,2012-10-11 07:53:00